Retour au catalogue

FLOCK 4H 2

ActifScienceSSO
NORAD 66705·PAYLOAD·🇺🇸 United States

Lancé Nov 28, 2025 depuis Vandenberg Space Force Base

Loading…

Prochains Passages (prochaines 24 heures)

TLE

FraisSource: CelesTrak SupGP

Époque: Sep 14, 2026, 12:45 UTC

1 66705C 25276AR  26257.53136574  .00007549  00000+0  33330-3 0  2578
2 66705  97.4099 329.8996 0002181  62.5691 211.9539 15.21813988    18

Suivez FLOCK 4H 2 en temps réel avec AllMySat

Download on the App Store